[[{"header":{"parameterUnit":"m.s-1","parameterCategory":1,"la1":30.2991,"la2":30.254,"lo1":-89.0895,"lo2":-89.0444,"dy":0.0017,"dx":0.0017,"nx":28,"ny":28,"refTime":"2023-09-22T09:00:00:Z","depth":0,"parameterNumber":2,"parameterNumberName":"U-component_of_WINDS"},"data":[0,0,0,0,0,0,0,0,0,0,0,0,0,0,0,0,0,0,0,0,0,0,0,0,0,0,0,0,0,0,0,0,0,0,0,0,0,0,0,0,0,0,0,0,0,0,0,0,0,0,0,0,0,0,0,0,0,0,-2.5317,-2.5318,0,-2.5419,-2.542,-2.5421,-2.5354,-2.535,-2.5347,-2.5344,-2.5452,-2.5457,-2.5463,0,0,0,0,0,0,0,0,0,0,0,0,0,-2.5065,-2.507,-2.5317,-2.5318,-2.5319,-2.5419,-2.542,-2.5422,-2.5354,-2.535,-2.5347,-2.5343,-2.545,-2.5456,-2.5463,0,0,0,0,0,0,0,0,0,0,0,0,0,-2.5172,-2.5071,-2.5317,-2.5298,-2.5297,-2.5419,-2.542,-2.5422,-2.5355,-2.535,-2.5346,-2.5341,-2.5447,-2.5456,-2.5464,-2.5611,0,0,-2.5491,-2.5494,0,0,0,0,0,0,0,0,-2.5166,-2.5181,-2.5299,-2.5299,-2.5299,-2.5369,-2.5371,-2.5486,-2.5356,-2.5333,-2.5344,-2.5339,-2.5428,-2.5438,-2.5467,-2.5616,-2.5621,-2.5491,-2.5497,-2.55,-2.5503,0,0,0,0,0,0,0,-2.5158,-2.5176,-2.5357,-2.5301,-2.5301,-2.5285,-2.5295,-2.5392,-2.5406,-2.5335,-2.533,-2.5343,-2.5427,-2.5459,-2.5469,-2.5622,-2.5491,-2.5499,-2.5504,-2.5508,-2.5897,-2.5902,0,0,0,0,0,0,-2.5152,-2.517,-2.5354,-2.536,-2.5219,-2.5293,-2.5304,-2.5351,-2.5404,-2.5408,-2.5347,-2.5339,-2.5447,-2.5459,-2.5473,-2.5649,-2.55,-2.5508,-2.5513,-2.5892,-2.5898,-2.5904,0,0,0,0,0,0,-2.5147,-2.5169,-2.535,-2.5264,-2.5286,-2.5302,-2.5356,-2.5356,-2.5388,-2.5413,-2.5416,-2.5377,-2.5444,-2.5461,-2.5577,-2.5651,-2.5512,-2.552,-2.5886,-2.5894,-2.5901,-2.6001,0,0,0,0,0,0,-2.514,-2.5168,-2.5223,-2.5266,-2.5291,-2.5452,-2.536,-2.5361,-2.5403,-2.5394,-2.5443,-2.5446,-2.5441,-2.5565,-2.5586,-2.5661,-2.5527,-2.5879,-2.5889,-2.5898,-2.5991,-2.6011,-2.6029,0,0,0,0,0,-2.5131,-2.5248,-2.5227,-2.5249,-2.5361,-2.5457,-2.5471,-2.5462,-2.5409,-2.5465,-2.5481,-2.5445,-2.564,-2.5577,-2.56,-2.5679,-2.5874,-2.5886,-2.5898,-2.5983,-2.6008,-2.6028,0,0,0,0,0,0,-2.5215,-2.5253,-2.523,-2.5364,-2.5407,-2.5445,-2.5516,-2.5488,-2.5549,-2.5538,-2.5525,-2.5537,-2.5659,-2.568,-2.561,-2.5824,-2.5749,-2.5766,-2.5806,-2.5829,-2.5847,-2.584,-2.5534,0,0,0,0,0,-2.5249,-2.5323,-2.5353,-2.5468,-2.5491,-2.55,-2.5541,-2.5531,-2.5576,-2.5594,-2.5619,-2.5665,-2.5736,-2.5784,-2.5851,-2.5994,-2.6004,-2.6059,-2.6078,-2.6093,-2.6108,-2.6186,-2.6211,-2.5942,-2.5942,-2.5941,0,0,-2.532,-2.535,-2.5398,-2.5486,-2.5518,-2.5596,-2.5516,-2.5602,-2.5659,-2.5607,-2.5719,-2.5739,-2.5789,-2.5919,-2.5978,-2.5941,-2.6185,-2.6108,-2.612,-2.6127,-2.62,-2.6226,-2.6248,-2.595,-2.5948,-2.5947,0,0,-2.5489,-2.5519,-2.5618,-2.5652,-2.5702,-2.5707,-2.5731,-2.5773,-2.5784,-2.5895,-2.5858,-2.5927,-2.605,-2.6087,-2.6123,-2.6306,-2.6274,-2.6328,-2.6426,-2.6501,-2.6522,-2.6541,-2.6607,-2.6631,-2.6342,-2.6343,-2.6343,0,-2.5571,-2.5686,-2.5673,-2.5762,-2.5802,-2.5757,-2.5858,-2.5892,-2.5962,-2.5991,-2.5948,-2.6102,-2.6132,-2.6271,-2.6315,-2.6345,-2.6373,-2.6323,-2.652,-2.6539,-2.6556,-2.6619,-2.6644,-2.6349,-2.6348,-2.6348,-2.6347,0,-2.5785,-2.5865,-2.594,-2.6007,-2.6056,-2.615,-2.6152,-2.6202,-2.6187,-2.6197,-2.6311,-2.6346,-2.642,-2.6452,-2.6438,-2.6589,-2.6564,-2.6521,-2.6446,-2.6588,-2.6647,-2.6671,-2.6358,-2.6356,-2.6354,-2.6352,0,0,-2.601,-2.6069,-2.6097,-2.6127,-2.6179,-2.6241,-2.6333,-2.6404,-2.6448,-2.6498,-2.6575,-2.6681,-2.6641,-2.6681,-2.6671,-2.6738,-2.6881,-2.6686,-2.6687,-2.6722,-2.705,-2.7082,-2.711,-2.686,-2.6864,-2.6868,-2.7046,0,-2.6183,-2.6343,-2.6334,-2.6485,-2.656,-2.6518,-2.6599,-2.664,-2.6651,-2.6716,-2.6729,-2.6804,-2.6746,-2.677,-2.6833,-2.685,-2.6947,-2.6837,-2.6933,-2.6937,-2.6923,-2.7141,-2.7176,-2.7342,-2.7068,-2.7072,-2.7075,0,-2.6406,-2.6462,-2.6621,-2.6661,-2.6692,-2.6764,-2.6829,-2.6891,-2.6937,-2.6941,-2.6985,-2.6964,-2.7059,-2.698,-2.7109,-2.7035,-2.7074,-2.7088,-2.7094,-2.7103,-2.7015,-2.7157,-2.7394,-2.7419,-2.7111,-2.7108,-2.7106,0,-2.6555,-2.6671,-2.678,-2.6807,-2.6857,-2.6909,-2.6933,-2.6973,-2.7017,-2.7073,-2.7101,-2.7168,-2.7205,-2.7258,-2.7256,-2.7199,-2.7388,-2.7309,-2.7394,-2.7395,-2.7437,-2.7435,-2.7685,-2.7461,-2.7461,-2.746,-2.746,0,-2.6749,-2.6848,-2.6848,-2.6916,-2.7025,-2.7014,-2.7123,-2.714,-2.7177,-2.7248,-2.7216,-2.7283,-2.7276,-2.7344,-2.7343,-2.7451,-2.7468,-2.7474,-2.7473,-2.7478,-2.7477,-2.7504,-2.7492,-2.7467,-2.7465,-2.7464,-2.7463,0,-2.6935,-2.6939,-2.7056,-2.7093,-2.7105,-2.7184,-2.7216,-2.728,-2.7288,-2.7379,-2.7399,-2.7413,-2.7491,-2.7494,-2.7585,-2.7584,-2.7716,-2.7701,-2.77,-2.7698,-2.7784,-2.7776,-2.806,-2.8097,-2.7849,-2.7851,-2.7853,0,-2.7059,-2.7134,-2.7179,-2.7224,-2.725,-2.7322,-2.7366,-2.7358,-2.7405,-2.7462,-2.752,-2.7595,-2.7655,-2.7782,-2.78,-2.7869,-2.7857,-2.7952,-2.7867,-2.7869,-2.7859,-2.7855,-2.7863,-2.7969,-2.7971,-2.7974,-2.7975,0,-2.7279,-2.7277,-2.7341,-2.7406,-2.7459,-2.751,-2.7557,-2.7596,-2.7593,-2.7648,-2.7727,-2.7773,-2.7865,-2.794,-2.8007,-2.8032,-2.8004,-2.8002,-2.8025,-2.8031,-2.8028,-2.8031,-2.7746,-2.7995,-2.7993,-2.7992,-2.7991,-2.799,-2.7438,-2.7502,-2.7544,-2.7617,-2.7651,-2.7696,-2.7758,-2.7774,-2.784,-2.7913,-2.7904,-2.7993,-2.8036,-2.8123,-2.8153,-2.8223,-2.819,-2.8224,-2.8233,-2.8242,-2.8251,-2.8016,-2.8235,-2.8234,-2.8234,-2.8233,-2.8233,0,-2.7656,-2.7681,-2.7748,-2.7814,-2.7872,-2.7839,-2.789,-2.794,-2.8018,-2.806,-2.8119,-2.8211,-2.8284,-2.8308,-2.8378,-2.8429,-2.8418,-2.8448,-2.8445,-2.8451,-2.8276,-2.8249,-2.8456,-2.8456,-2.8456,-2.8456,-2.8456,-2.8456,-2.7777,-2.7884,-2.7888,-2.8012,-2.8036,-2.8122,-2.8154,-2.8195,-2.8229,-2.8332,-2.8392,-2.8407,-2.8442,-2.8515,-2.8581,-2.8586,-2.8614,-2.865,-2.865,-2.8486,-2.8463,-2.8442,-2.8416,-2.8655,-2.8656,-2.8819,-2.882,-2.8821]},{"header":{"parameterUnit":"m.s-1","parameterCategory":1,"la1":30.2991,"la2":30.254,"lo1":-89.0895,"lo2":-89.0444,"dy":0.0017,"dx":0.0017,"nx":28,"ny":28,"refTime":"2023-09-22T09:00:00:Z","depth":0,"parameterNumber":3,"parameterNumberName":"V-component_of_WINDS"},"data":[0,0,0,0,0,0,0,0,0,0,0,0,0,0,0,0,0,0,0,0,0,0,0,0,0,0,0,0,0,0,0,0,0,0,0,0,0,0,0,0,0,0,0,0,0,0,0,0,0,0,0,0,0,0,0,0,0,0,-3.1645,-3.1646,0,-3.1697,-3.1697,-3.1698,-3.1672,-3.167,-3.1669,-3.1668,-3.1717,-3.1719,-3.1722,0,0,0,0,0,0,0,0,0,0,0,0,0,-3.1518,-3.1521,-3.1645,-3.1646,-3.1646,-3.1697,-3.1697,-3.1698,-3.1672,-3.167,-3.1669,-3.1667,-3.1716,-3.1719,-3.1722,0,0,0,0,0,0,0,0,0,0,0,0,0,-3.1572,-3.1522,-3.1645,-3.1639,-3.1639,-3.1697,-3.1697,-3.1698,-3.1672,-3.167,-3.1668,-3.1666,-3.1715,-3.1719,-3.1723,-3.1787,0,0,-3.1734,-3.1736,0,0,0,0,0,0,0,0,-3.1569,-3.1577,-3.164,-3.164,-3.164,-3.1676,-3.1671,-3.1728,-3.1673,-3.166,-3.1668,-3.1665,-3.1705,-3.1709,-3.1723,-3.1789,-3.1791,-3.1735,-3.1737,-3.1739,-3.174,0,0,0,0,0,0,0,-3.1565,-3.1574,-3.1665,-3.164,-3.1641,-3.1633,-3.1638,-3.1681,-3.1693,-3.1661,-3.1659,-3.1666,-3.1704,-3.172,-3.1724,-3.1792,-3.1735,-3.1738,-3.174,-3.1742,-3.1911,-3.1913,0,0,0,0,0,0,-3.1562,-3.1571,-3.1664,-3.1667,-3.1599,-3.1637,-3.1643,-3.1666,-3.1692,-3.1694,-3.1667,-3.1664,-3.1714,-3.172,-3.1726,-3.1802,-3.1739,-3.1742,-3.1744,-3.1909,-3.1911,-3.1914,0,0,0,0,0,0,-3.156,-3.1571,-3.1662,-3.1619,-3.163,-3.1641,-3.1668,-3.1668,-3.1684,-3.1697,-3.1699,-3.1681,-3.1713,-3.172,-3.1772,-3.1803,-3.1744,-3.1747,-3.1906,-3.191,-3.1913,-3.1954,0,0,0,0,0,0,-3.1556,-3.157,-3.1596,-3.162,-3.1632,-3.1708,-3.167,-3.1671,-3.1691,-3.1687,-3.1711,-3.1713,-3.1712,-3.1766,-3.1776,-3.1807,-3.175,-3.1903,-3.1908,-3.1912,-3.195,-3.1959,-3.1966,0,0,0,0,0,-3.1552,-3.1605,-3.1598,-3.1609,-3.1665,-3.171,-3.1717,-3.1716,-3.1694,-3.1719,-3.1727,-3.1712,-3.1798,-3.1772,-3.1782,-3.1815,-3.1901,-3.1906,-3.1911,-3.1947,-3.1957,-3.1966,0,0,0,0,0,0,-3.1584,-3.1608,-3.16,-3.1663,-3.1685,-3.1706,-3.1738,-3.1727,-3.1755,-3.1751,-3.1747,-3.1752,-3.1805,-3.1815,-3.1785,-3.1878,-3.1846,-3.1853,-3.1869,-3.1879,-3.1887,-3.1883,-3.1754,0,0,0,0,0,-3.1599,-3.1635,-3.1654,-3.1707,-3.1719,-3.1726,-3.1746,-3.1743,-3.1765,-3.1774,-3.1786,-3.1807,-3.1838,-3.1859,-3.1889,-3.1951,-3.1955,-3.1979,-3.1987,-3.1993,-3.1999,-3.2031,-3.2042,-3.193,-3.193,-3.193,0,0,-3.1629,-3.1646,-3.167,-3.1714,-3.1731,-3.1767,-3.1734,-3.1774,-3.18,-3.178,-3.1829,-3.1839,-3.1861,-3.1918,-3.1943,-3.1928,-3.2031,-3.2,-3.2005,-3.2007,-3.2037,-3.2048,-3.2057,-3.1933,-3.1933,-3.1932,0,0,-3.1702,-3.172,-3.1766,-3.1783,-3.1809,-3.1814,-3.1825,-3.1847,-3.1853,-3.1903,-3.1888,-3.1918,-3.1973,-3.1989,-3.2005,-3.2083,-3.2069,-3.2092,-3.2133,-3.2164,-3.2173,-3.2181,-3.2207,-3.2217,-3.2098,-3.2098,-3.2099,0,-3.1736,-3.1791,-3.179,-3.1831,-3.185,-3.1834,-3.188,-3.1896,-3.193,-3.1943,-3.1925,-3.1993,-3.2007,-3.2067,-3.2086,-3.2099,-3.211,-3.209,-3.2172,-3.218,-3.2187,-3.2212,-3.2222,-3.2101,-3.2101,-3.21,-3.21,0,-3.1831,-3.1869,-3.1903,-3.1937,-3.196,-3.2003,-3.2007,-3.203,-3.2024,-3.203,-3.208,-3.2096,-3.2129,-3.2142,-3.2138,-3.2201,-3.219,-3.2173,-3.214,-3.22,-3.2224,-3.2234,-3.2105,-3.2104,-3.2103,-3.2102,0,0,-3.1927,-3.1959,-3.1971,-3.1986,-3.2013,-3.2042,-3.2083,-3.2115,-3.2134,-3.2158,-3.2191,-3.2237,-3.2221,-3.2238,-3.2235,-3.2263,-3.2322,-3.2241,-3.2241,-3.2255,-3.2391,-3.2403,-3.2415,-3.2313,-3.2315,-3.2316,-3.2388,0,-3.2001,-3.2075,-3.2074,-3.2142,-3.2176,-3.2161,-3.2196,-3.2215,-3.2222,-3.225,-3.2256,-3.2289,-3.2265,-3.2275,-3.2302,-3.2309,-3.2349,-3.2304,-3.2342,-3.2344,-3.2337,-3.2427,-3.2441,-3.2509,-3.2398,-3.2399,-3.24,0,-3.2098,-3.2126,-3.2197,-3.2217,-3.2232,-3.2264,-3.2293,-3.2321,-3.2342,-3.2344,-3.2363,-3.2355,-3.2395,-3.2362,-3.2416,-3.2385,-3.2401,-3.2407,-3.2409,-3.2412,-3.2375,-3.2432,-3.253,-3.254,-3.2415,-3.2414,-3.2413,0,-3.2159,-3.2214,-3.2263,-3.2276,-3.2302,-3.2325,-3.2336,-3.2355,-3.2374,-3.2399,-3.2411,-3.244,-3.2455,-3.2477,-3.2476,-3.2452,-3.253,-3.2497,-3.2532,-3.2532,-3.2549,-3.2547,-3.265,-3.256,-3.256,-3.2559,-3.2559,0,-3.2242,-3.2286,-3.2291,-3.2321,-3.2369,-3.2367,-3.2414,-3.2423,-3.244,-3.247,-3.2458,-3.2487,-3.2484,-3.2512,-3.2512,-3.2556,-3.2563,-3.2565,-3.2564,-3.2566,-3.2565,-3.2575,-3.257,-3.2562,-3.2562,-3.2561,-3.2561,0,-3.2319,-3.2325,-3.2377,-3.2397,-3.2403,-3.2437,-3.2453,-3.2481,-3.2485,-3.2524,-3.2532,-3.2539,-3.2572,-3.2573,-3.261,-3.261,-3.2663,-3.2657,-3.2656,-3.2655,-3.2689,-3.2685,-3.2801,-3.2815,-3.2717,-3.2718,-3.2718,0,-3.2372,-3.2405,-3.2428,-3.2448,-3.2461,-3.2494,-3.2513,-3.2512,-3.2532,-3.2558,-3.2582,-3.2613,-3.2638,-3.269,-3.2698,-3.2726,-3.272,-3.2758,-3.2724,-3.2724,-3.2719,-3.2717,-3.272,-3.2765,-3.2766,-3.2767,-3.2768,0,-3.2464,-3.2464,-3.2494,-3.2524,-3.2548,-3.2571,-3.2592,-3.2609,-3.261,-3.2633,-3.2667,-3.2686,-3.2724,-3.2755,-3.2781,-3.2791,-3.2779,-3.2779,-3.2788,-3.279,-3.2787,-3.2788,-3.2674,-3.2776,-3.2775,-3.2774,-3.2774,-3.2774,-3.2529,-3.2558,-3.2578,-3.2611,-3.2627,-3.2647,-3.2674,-3.2682,-3.271,-3.2742,-3.2739,-3.2775,-3.2793,-3.2828,-3.284,-3.2868,-3.2854,-3.2868,-3.2871,-3.2874,-3.2878,-3.2784,-3.2873,-3.2872,-3.2872,-3.2872,-3.2872,0,-3.262,-3.2632,-3.2662,-3.2693,-3.2718,-3.2706,-3.2728,-3.275,-3.2783,-3.2801,-3.2826,-3.2863,-3.2893,-3.2902,-3.293,-3.295,-3.2945,-3.2958,-3.2956,-3.2958,-3.2889,-3.2877,-3.2961,-3.2961,-3.2961,-3.2961,-3.2961,-3.2961,-3.267,-3.2717,-3.272,-3.2774,-3.2785,-3.2822,-3.2836,-3.2854,-3.2868,-3.2911,-3.2936,-3.2942,-3.2956,-3.2985,-3.3011,-3.3013,-3.3023,-3.3038,-3.3037,-3.2972,-3.2963,-3.2954,-3.2944,-3.304,-3.304,-3.3104,-3.3105,-3.3105]}]]